This is the latest recevied weather packets stored in our database for station/object W1REE. If no packets are shown the sender has not sent any weather packets the latest 1 day(s).
| Time | Temp. | Humidity | Pressure | Rain* | Wind** | Luminosity | Snow |
|---|---|---|---|---|---|---|---|
| 1778021411 | 2.78° C | 96% | 1012.7 hPa | 0 mm | 0 m/s | 54 W/m² | - |
| 1778021108 | 2.78° C | 96% | 1012.5 hPa | 0 mm | 0 m/s | 46 W/m² | - |
| 1778020805 | 2.78° C | 96% | 1012.4 hPa | 0 mm | 0 m/s | 69 W/m² | - |
| 1778020502 | 2.78° C | 96% | 1012.7 hPa | 0 mm | 0 m/s | 57 W/m² | - |
| 1778020198 | 3.33° C | 96% | 1012.5 hPa | 0 mm | 0 m/s | 73 W/m² | - |
| 1778019895 | 2.78° C | 96% | 1012.7 hPa | 0 mm | 0 m/s | 70 W/m² | - |
| 1778019590 | 2.78° C | 96% | 1012.5 hPa | 0 mm | 0.45 m/s, 17° | 57 W/m² | - |
| 1778019288 | 2.78° C | 96% | 1012.5 hPa | 0 mm | 1.34 m/s, 135° | 84 W/m² | - |
| 1778018985 | 2.78° C | 96% | 1012.5 hPa | 0 mm | 0.45 m/s, 38° | 68 W/m² | - |
| 1778018682 | 2.78° C | 96% | 1012.8 hPa | 0 mm | 0 m/s | 77 W/m² | - |
| 1778018379 | 3.33° C | 96% | 1012.7 hPa | 0 mm | 0.89 m/s, 63° | 114 W/m² | - |
| 1778018078 | 3.33° C | 96% | 1013 hPa | 0 mm | 0 m/s | 100 W/m² | - |
| 1778017775 | 3.33° C | 96% | 1013.1 hPa | 1.27 mm | 0 m/s | 105 W/m² | - |
| 1778017473 | 3.33° C | 96% | 1013.1 hPa | 1.27 mm | 0 m/s | 109 W/m² | - |
| 1778017170 | 3.33° C | 96% | 1013.3 hPa | 0 mm | 0 m/s | 105 W/m² | - |
| 1778016867 | 3.33° C | 96% | 1013 hPa | 0 mm | 0 m/s | 86 W/m² | - |
| 1778016563 | 3.33° C | 96% | 1013.1 hPa | 0 mm | 0.45 m/s, 282° | 101 W/m² | - |
| 1778016260 | 3.33° C | 96% | 1013.1 hPa | 0 mm | 0 m/s | 133 W/m² | - |
| 1778015956 | 3.33° C | 95% | 1013.3 hPa | 0 mm | 0 m/s | 103 W/m² | - |
| 1778015654 | 3.33° C | 96% | 1013.4 hPa | 0 mm | 0 m/s | 101 W/m² | - |
| 1778015350 | 3.33° C | 95% | 1013.5 hPa | 0 mm | 0 m/s | 62 W/m² | - |
| 1778015048 | 3.89° C | 96% | 1013.4 hPa | 0 mm | 0.45 m/s, 18° | 123 W/m² | - |
| 1778014744 | 3.89° C | 95% | 1013.6 hPa | 0 mm | 0 m/s | 89 W/m² | - |
| 1778014443 | 3.89° C | 96% | 1013.7 hPa | 0 mm | 0.45 m/s, 16° | 148 W/m² | - |
| 1778014139 | 3.89° C | 95% | 1013.7 hPa | 0 mm | 0 m/s | 150 W/m² | - |
* Rain latest hour (hover to see other rain measurements)
** Current wind speed in m/s (hover to see current wind gust speed)